Location: Fossil View Observatory
(30.3980°N, 99.3522°W)
Time: 02:54:50
(UTC-05:00)

ISS - Pass Details

Date: 22 February 2019
Orbit: 406 x 411 km, 51.6° (Epoch: 21 March)

Event Time Altitude Azimuth Distance (km) Brightness Sun altitude
Exits shadow 06:24:55 - 226° (SW) 1,715 -1.0 -10.7°
Reaches altitude 10° 06:25:33 10° 227° (SW) 1,451 -1.4 -10.6°
Maximum altitude 06:28:48 80° 314° (NW) 413 -3.9 -9.9°
Drops below altitude 10° 06:32:05 10° 42° (NE) 1,459 -0.5 -9.2°
Sets 06:34:10 0° 43° (NE) 2,322 0.6 -8.7°
